Atmospheric History
04/19/2019 18:30  to  4/20/2019 18:30
Change End Date:
To complete the export process:
1) Select all of the data below
2) Copy the data to the clipboard
3) Open a word processor such as Notepad
4) Paste the data into the word processor
5) Save the file

Date/Time (MDT), AirTemp, RH, Dewpoint ,AvgWindSpeed, GustWindSpeed, WindDirection, PrecipType, PrecipIntensity, PrecipAccumulation, PrecipRate ,Visibility
04/20/2019 18:25, 49, 90, 47 ,12, 15, NE, None, None, ,   ,
04/20/2019 18:22, 50, 91, 47 ,10, 15, NE, None, None, ,   ,
04/20/2019 18:15, 50, 89, 47 ,12, 16, NE, None, None, ,   ,
04/20/2019 18:07, 49, 89, 46 ,14, 16, NE, None, None, ,   ,
04/20/2019 18:05, 49, 89, 46 ,14, 16, NE, None, None, ,   ,
04/20/2019 17:55, 49, 89, 46 ,14, 16, NE, None, None, ,   ,
04/20/2019 17:52, 49, 90, 47 ,11, 16, NE, None, None, ,   ,
04/20/2019 17:45, 49, 88, 46 ,13, 17, NE, None, None, ,   ,
04/20/2019 17:37, 49, 91, 47 ,13, 17, NE, None, None, ,   ,
04/20/2019 17:35, 49, 90, 47 ,12, 17, NE, None, None, ,   ,
04/20/2019 17:25, 49, 89, 46 ,15, 18, NE, None, None, ,   ,
04/20/2019 17:22, 49, 88, 46 ,15, 18, NE, None, None, ,   ,
04/20/2019 17:14, 49, 91, 46 ,16, 19, NE, None, None, ,   ,
04/20/2019 17:07, 49, 90, 46 ,17, 19, NE, None, None, ,   ,
04/20/2019 17:04, 49, 89, 46 ,16, 18, NE, None, None, ,   ,
04/20/2019 16:54, 49, 91, 47 ,12, 17, NE, Yes, , ,   ,
04/20/2019 16:52, 49, 92, 47 ,12, 17, NE, None, None, ,   ,
04/20/2019 16:44, 49, 92, 47 ,12, 16, NE, Yes, , ,   ,
04/20/2019 16:37, 49, 91, 46 ,14, 16, NE, Yes, , ,   ,
04/20/2019 16:34, 48, 91, 46 ,12, 16, NE, Yes, , ,   ,
04/20/2019 16:24, 49, 92, 46 ,12, 16, NE, None, None, ,   ,
04/20/2019 16:22, 49, 91, 46 ,11, 18, NE, Yes, , ,   ,
04/20/2019 16:14, 48, 90, 46 ,14, 18, NE, Yes, , ,   ,
04/20/2019 16:07, 48, 89, 45 ,14, 17, NE, Yes, , ,   ,
04/20/2019 16:04, 48, 91, 46 ,11, 17, NE, Yes, , ,   ,
04/20/2019 15:54, 48, 90, 45 ,14, 16, NE, Yes, , ,   ,
04/20/2019 15:52, 48, 90, 46 ,13, 16, NE, Yes, , ,   ,
04/20/2019 15:44, 49, 93, 47 ,10, 13, NE, Yes, , ,   ,
04/20/2019 15:37, 49, 91, 46 ,11, 14, NE, Yes, , ,   ,
04/20/2019 15:34, 49, 90, 46 ,12, 14, NE, Yes, , ,   ,
04/20/2019 15:24, 49, 89, 46 ,12, 14, NE, Yes, , ,   ,
04/20/2019 15:22, 49, 91, 46 ,11, 12, NE, Yes, , ,   ,
04/20/2019 15:14, 49, 92, 46 ,11, 13, NE, Yes, , ,   ,
04/20/2019 15:07, 48, 90, 46 ,11, 13, NE, Yes, , ,   ,
04/20/2019 15:04, 48, 90, 46 ,11, 13, NE, Yes, , ,   ,
04/20/2019 14:54, 48, 90, 46 ,9, 12, NE, Yes, , ,   ,
04/20/2019 14:52, 48, 91, 46 ,9, 12, NE, Yes, , ,   ,
04/20/2019 14:44, 48, 90, 45 ,9, 12, NE, Yes, , ,   ,
04/20/2019 14:37, 48, 91, 46 ,9, 12, NE, Yes, , ,   ,
04/20/2019 14:34, 48, 91, 46 ,9, 11, NE, Yes, , ,   ,
04/20/2019 14:24, 48, 91, 46 ,9, 11, NE, Yes, , ,   ,
04/20/2019 14:22, 48, 90, 46 ,9, 11, NE, Yes, , ,   ,
04/20/2019 14:14, 48, 89, 45 ,9, 13, NE, Yes, , ,   ,
04/20/2019 14:07, 49, 89, 46 ,11, 14, NE, Yes, , ,   ,
04/20/2019 14:04, 49, 92, 47 ,9, 14, NE, Yes, , ,   ,
04/20/2019 13:54, 49, 88, 46 ,10, 13, NE, Yes, , ,   ,
04/20/2019 13:52, 49, 92, 47 ,11, 13, NE, Yes, , ,   ,
04/20/2019 13:44, 49, 91, 46 ,9, 13, NE, Yes, , ,   ,
04/20/2019 13:37, 49, 89, 45 ,10, 12, NE, Yes, , ,   ,
04/20/2019 13:34, 48, 89, 45 ,10, 12, NE, Yes, , ,   ,
04/20/2019 13:23, 49, 85, 44 ,10, 12, NE, Yes, , ,   ,
04/20/2019 13:22, 49, 90, 46 ,9, 12, NE, Yes, , ,   ,
04/20/2019 13:13, 49, 92, 47 ,9, 14, NE, Yes, , ,   ,
04/20/2019 13:07, 48, 88, 45 ,9, 12, NE, Yes, , ,   ,
04/20/2019 13:03, 48, 87, 45 ,9, 12, NE, Yes, , ,   ,
04/20/2019 12:53, 48, 90, 46 ,7, 11, NE, Yes, , ,   ,
04/20/2019 12:52, 48, 90, 46 ,7, 11, NE, Yes, , ,   ,
04/20/2019 12:43, 48, 91, 46 ,9, 11, N, Yes, , ,   ,
04/20/2019 12:37, 48, 90, 46 ,7, 12, N, Yes, , ,   ,
04/20/2019 12:33, 48, 92, 46 ,9, 13, NE, Yes, , ,   ,
04/20/2019 12:23, 48, 91, 45 ,11, 15, NE, Yes, , ,   ,
04/20/2019 12:22, 48, 91, 46 ,11, 15, NE, Yes, , ,   ,
04/20/2019 12:13, 48, 91, 46 ,12, 15, NE, Yes, , ,   ,
04/20/2019 12:07, 48, 91, 46 ,12, 15, NE, Yes, , ,   ,
04/20/2019 12:03, 48, 91, 46 ,11, 16, NE, Yes, , ,   ,
04/20/2019 11:53, 48, 91, 46 ,12, 16, NE, Yes, , ,   ,
04/20/2019 11:52, 48, 90, 46 ,12, 16, NE, Yes, , ,   ,
04/20/2019 11:43, 48, 92, 46 ,9, 19, NE, Yes, , ,   ,
04/20/2019 11:37, 48, 90, 45 ,14, 19, NE, Yes, , ,   ,
04/20/2019 11:33, 48, 90, 45 ,14, 17, NE, Yes, , ,   ,
04/20/2019 11:23, 48, 92, 46 ,11, 14, NE, Yes, , ,   ,
04/20/2019 11:22, 48, 91, 45 ,11, 14, NE, Yes, , ,   ,
04/20/2019 11:13, 48, 92, 46 ,9, 12, NE, Yes, , ,   ,
04/20/2019 11:07, 48, 92, 46 ,9, 12, N, Yes, , ,   ,
04/20/2019 11:03, 48, 94, 47 ,7, 12, N, Yes, , ,   ,
04/20/2019 10:53, 48, 95, 47 ,9, 13, N, Yes, , ,   ,
04/20/2019 10:52, 48, 95, 46 ,9, 13, N, Yes, , ,   ,
04/20/2019 10:43, 48, 93, 46 ,11, 16, N, Yes, , ,   ,
04/20/2019 10:37, 48, 94, 47 ,10, 16, N, Yes, , ,   ,
04/20/2019 10:33, 48, 93, 46 ,12, 16, NW, Yes, , ,   ,
04/20/2019 10:23, 49, 91, 46 ,13, 15, NW, Yes, , ,   ,
04/20/2019 10:22, 49, 90, 46 ,14, 15, NW, Yes, , ,   ,
04/20/2019 10:13, 50, 88, 46 ,12, 13, NW, Yes, , ,   ,
04/20/2019 10:07, 50, 90, 47 ,10, 11, NW, Yes, , ,   ,
04/20/2019 10:03, 50, 89, 47 ,8, 9, NW, Yes, , ,   ,
04/20/2019 09:53, 50, 84, 46 ,7, 11, N, Yes, , ,   ,
04/20/2019 09:52, 50, 88, 47 ,7, 11, NW, Yes, , ,   ,
04/20/2019 09:42, 51, 80, 45 ,9, 14, N, Yes, , ,   ,
04/20/2019 09:37, 51, 80, 45 ,10, 14, N, Yes, , ,   ,
04/20/2019 09:32, 51, 79, 45 ,12, 14, N, None, None, ,   ,
04/20/2019 09:22, 51, 79, 45 ,10, 14, N, None, None, ,   ,
04/20/2019 09:22, 51, 79, 45 ,9, 14, N, None, None, ,   ,
04/20/2019 09:12, 52, 78, 45 ,10, 13, N, None, None, ,   ,
04/20/2019 09:07, 51, 79, 45 ,11, 13, N, None, None, ,   ,
04/20/2019 09:02, 51, 79, 45 ,9, 13, NW, None, None, ,   ,
04/20/2019 08:52, 51, 81, 46 ,12, 14, N, None, None, ,   ,
04/20/2019 08:52, 51, 81, 46 ,12, 14, N, None, None, ,   ,
04/20/2019 08:42, 51, 81, 45 ,12, 16, N, None, None, ,   ,
04/20/2019 08:37, 51, 81, 46 ,12, 16, N, None, None, ,   ,
04/20/2019 08:32, 51, 81, 46 ,12, 16, NW, None, None, ,   ,
04/20/2019 08:22, 51, 82, 46 ,12, 16, NW, None, None, ,   ,
04/20/2019 08:22, 51, 82, 46 ,13, 16, NW, None, None, ,   ,
04/20/2019 08:12, 52, 82, 47 ,12, 14, NW, None, None, ,   ,
04/20/2019 08:07, 51, 82, 46 ,11, 14, NW, None, None, ,   ,
04/20/2019 08:02, 52, 82, 46 ,12, 14, NW, None, None, ,   ,
04/20/2019 07:52, 51, 84, 47 ,11, 14, NW, None, None, ,   ,
04/20/2019 07:52, 51, 84, 47 ,11, 14, NW, None, None, ,   ,
04/20/2019 07:42, 50, 85, 46 ,10, 14, NW, None, None, ,   ,
04/20/2019 07:37, 50, 86, 46 ,10, 14, NW, None, None, ,   ,
04/20/2019 07:32, 50, 85, 46 ,12, 17, NW, None, None, ,   ,
04/20/2019 07:22, 50, 85, 46 ,9, 12, NW, None, None, ,   ,
04/20/2019 07:22, 50, 85, 46 ,9, 12, NW, None, None, ,   ,
04/20/2019 07:12, 50, 84, 45 ,10, 12, NW, None, None, ,   ,
04/20/2019 07:07, 50, 84, 45 ,11, 12, NW, None, None, ,   ,
04/20/2019 07:02, 50, 84, 46 ,9, 11, NW, None, None, ,   ,
04/20/2019 06:52, 51, 82, 46 ,8, 11, NW, None, None, ,   ,
04/20/2019 06:52, 51, 81, 45 ,8, 11, NW, None, None, ,   ,
04/20/2019 06:42, 51, 81, 46 ,5, 8, W, None, None, ,   ,
04/20/2019 06:37, 51, 81, 45 ,6, 8, W, None, None, ,   ,
04/20/2019 06:32, 50, 82, 45 ,4, 6, W, None, None, ,   ,
04/20/2019 06:22, 49, 84, 45 ,4, 6, W, None, None, ,   ,
04/20/2019 06:22, 49, 84, 45 ,4, 6, W, None, None, ,   ,
04/20/2019 06:12, 49, 85, 45 ,5, 7, W, None, None, ,   ,
04/20/2019 06:07, 49, 84, 44 ,6, 7, W, None, None, ,   ,
04/20/2019 06:02, 49, 83, 44 ,6, 6, W, None, None, ,   ,
04/20/2019 05:52, 49, 83, 44 ,4, 6, W, None, None, ,   ,
04/20/2019 05:52, 49, 83, 44 ,4, 6, W, None, None, ,   ,
04/20/2019 05:41, 47, 85, 43 ,5, 6, NW, None, None, ,   ,
04/20/2019 05:37, 48, 84, 43 ,6, 6, NW, None, None, ,   ,
04/20/2019 05:31, 47, 85, 43 ,4, 6, NW, None, None, ,   ,
04/20/2019 05:22, 48, 84, 43 ,6, 7, NW, None, None, ,   ,
04/20/2019 05:21, 48, 84, 43 ,6, 7, NW, None, None, ,   ,
04/20/2019 05:11, 48, 84, 43 ,6, 8, NW, None, None, ,   ,
04/20/2019 05:07, 48, 84, 43 ,6, 9, NW, None, None, ,   ,
04/20/2019 05:01, 48, 83, 43 ,9, 10, NW, None, None, ,   ,
04/20/2019 04:52, 49, 82, 43 ,9, 10, NW, None, None, ,   ,
04/20/2019 04:51, 49, 82, 43 ,9, 10, NW, None, None, ,   ,
04/20/2019 04:41, 47, 85, 43 ,8, 9, NW, None, None, ,   ,
04/20/2019 04:37, 47, 84, 43 ,8, 9, NW, None, None, ,   ,
04/20/2019 04:31, 48, 83, 43 ,8, 9, NW, None, None, ,   ,
04/20/2019 04:22, 49, 79, 43 ,9, 10, NW, None, None, ,   ,
04/20/2019 04:21, 49, 79, 43 ,9, 10, NW, None, None, ,   ,
04/20/2019 04:11, 50, 78, 43 ,9, 11, NW, None, None, ,   ,
04/20/2019 04:07, 50, 78, 43 ,10, 11, NW, None, None, ,   ,
04/20/2019 04:01, 50, 77, 44 ,11, 11, NW, None, None, ,   ,
04/20/2019 03:52, 50, 76, 43 ,10, 11, NW, None, None, ,   ,
04/20/2019 03:51, 50, 76, 43 ,10, 11, NW, None, None, ,   ,
04/20/2019 03:41, 50, 76, 43 ,7, 9, N, None, None, ,   ,
04/20/2019 03:37, 50, 77, 43 ,7, 9, NW, None, None, ,   ,
04/20/2019 03:31, 50, 77, 43 ,7, 10, NW, None, None, ,   ,
04/20/2019 03:22, 51, 73, 43 ,9, 12, N, None, None, ,   ,
04/20/2019 03:21, 52, 73, 43 ,9, 12, N, None, None, ,   ,
04/20/2019 03:11, 51, 76, 43 ,11, 12, N, None, None, ,   ,
04/20/2019 03:07, 50, 77, 43 ,10, 11, N, None, None, ,   ,
04/20/2019 03:01, 49, 77, 42 ,8, 12, NW, None, None, ,   ,
04/20/2019 02:52, 51, 74, 43 ,11, 12, NW, None, None, ,   ,
04/20/2019 02:51, 51, 74, 43 ,10, 11, NW, None, None, ,   ,
04/20/2019 02:41, 53, 70, 43 ,11, 12, N, None, None, ,   ,
04/20/2019 02:37, 52, 73, 43 ,11, 12, NW, None, None, ,   ,
04/20/2019 02:31, 52, 72, 43 ,9, 14, NW, None, None, ,   ,
04/20/2019 02:22, 52, 72, 43 ,13, 14, NW, None, None, ,   ,
04/20/2019 02:21, 52, 71, 43 ,13, 14, NW, None, None, ,   ,
04/20/2019 02:11, 54, 65, 43 ,12, 17, N, None, None, ,   ,
04/20/2019 02:07, 55, 64, 43 ,13, 18, N, None, None, ,   ,
04/20/2019 02:01, 56, 63, 43 ,15, 19, N, None, None, ,   ,
04/20/2019 01:52, 55, 63, 43 ,13, 17, N, None, None, ,   ,
04/20/2019 01:51, 55, 63, 43 ,12, 17, N, None, None, ,   ,
04/20/2019 01:40, 56, 61, 43 ,17, 21, N, None, None, ,   ,
04/20/2019 01:37, 56, 60, 43 ,17, 21, N, None, None, ,   ,
04/20/2019 01:30, 56, 60, 43 ,11, 15, N, None, None, ,   ,
04/20/2019 01:22, 58, 57, 43 ,14, 18, N, None, None, ,   ,
04/20/2019 01:20, 58, 57, 43 ,14, 19, N, None, None, ,   ,
04/20/2019 01:10, 58, 58, 44 ,16, 24, N, None, None, ,   ,
04/20/2019 01:07, 58, 58, 44 ,21, 24, N, None, None, ,   ,
04/20/2019 01:00, 57, 63, 44 ,21, 25, NW, None, None, ,   ,
04/20/2019 00:52, 56, 69, 46 ,22, 25, N, Yes, , ,   ,
04/20/2019 00:50, 55, 69, 45 ,20, 22, NW, Yes, , ,   ,
04/20/2019 00:40, 57, 58, 43 ,15, 17, NW, None, None, ,   ,
04/20/2019 00:37, 58, 55, 42 ,15, 16, NW, Yes, , ,   ,
04/20/2019 00:30, 60, 48, 41 ,7, 9, W, None, None, ,   ,
04/20/2019 00:22, 63, 42, 39 ,1, 2, SW, None, None, ,   ,
04/20/2019 00:20, 62, 43, 40 ,1, 2, E, None, None, ,   ,
04/20/2019 00:10, 62, 44, 40 ,2, 4, E, None, None, ,   ,
04/20/2019 00:07, 62, 44, 40 ,4, 4, E, None, None, ,   ,
04/20/2019 00:00, 62, 42, 39 ,3, 4, E, None, None, ,   ,
04/19/2019 23:52, 64, 38, 38 ,1, 2, N, None, None, ,   ,
04/19/2019 23:50, 65, 38, 39 ,2, 2, NE, None, None, ,   ,
04/19/2019 23:40, 66, 35, 38 ,2, 2, NW, None, None, ,   ,
04/19/2019 23:37, 67, 34, 38 ,1, 2, NW, None, None, ,   ,
04/19/2019 23:30, 67, 34, 38 ,1, 2, NE, None, None, ,   ,
04/19/2019 23:22, 66, 36, 39 ,1, 3, E, None, None, ,   ,
04/19/2019 23:20, 66, 36, 39 ,1, 4, NE, None, None, ,   ,
04/19/2019 23:10, 68, 34, 39 ,2, 2, E, None, None, ,   ,
04/19/2019 23:07, 67, 35, 38 ,2, 2, SE, None, None, ,   ,
04/19/2019 23:00, 67, 35, 39 ,2, 3, E, None, None, ,   ,
04/19/2019 22:52, 65, 38, 39 ,2, 3, NE, None, None, ,   ,
04/19/2019 22:50, 65, 38, 39 ,2, 3, NE, None, None, ,   ,
04/19/2019 22:40, 67, 35, 39 ,4, 4, E, None, None, ,   ,
04/19/2019 22:37, 66, 37, 39 ,4, 4, E, None, None, ,   ,
04/19/2019 22:30, 65, 39, 40 ,4, 4, E, None, None, ,   ,
04/19/2019 22:22, 64, 40, 40 ,3, 4, NE, None, None, ,   ,
04/19/2019 22:20, 64, 43, 41 ,4, 4, E, None, None, ,   ,
04/19/2019 22:10, 66, 36, 39 ,2, 3, NE, None, None, ,   ,
04/19/2019 22:07, 67, 36, 39 ,2, 3, N, None, None, ,   ,
04/19/2019 22:00, 67, 36, 39 ,2, 5, N, None, None, ,   ,
04/19/2019 21:52, 65, 39, 40 ,4, 5, N, None, None, ,   ,
04/19/2019 21:50, 64, 40, 40 ,4, 5, N, None, None, ,   ,
04/19/2019 21:39, 61, 45, 40 ,1, 3, N, None, None, ,   ,
04/19/2019 21:37, 61, 46, 40 ,1, 4, N, None, None, ,   ,
04/19/2019 21:29, 64, 40, 40 ,3, 6, N, None, None, ,   ,
04/19/2019 21:22, 65, 41, 40 ,4, 4, NE, None, None, ,   ,
04/19/2019 21:19, 64, 41, 40 ,4, 4, NE, None, None, ,   ,
04/19/2019 21:09, 66, 39, 40 ,4, 4, NE, None, None, ,   ,
04/19/2019 21:07, 66, 38, 40 ,4, 4, NE, None, None, ,   ,
04/19/2019 20:59, 65, 43, 42 ,2, 4, NE, None, None, ,   ,
04/19/2019 20:52, 67, 39, 41 ,3, 6, NE, None, None, ,   ,
04/19/2019 20:49, 66, 38, 40 ,4, 6, NE, None, None, ,   ,
04/19/2019 20:39, 70, 33, 40 ,3, 3, NE, None, None, ,   ,
04/19/2019 20:37, 70, 32, 39 ,2, 3, N, None, None, ,   ,
04/19/2019 20:29, 70, 32, 39 ,2, 6, N, None, None, ,   ,
04/19/2019 20:22, 68, 36, 41 ,6, 6, NW, Yes, , ,   ,
04/19/2019 20:19, 69, 35, 41 ,4, 6, NW, Yes, , ,   ,
04/19/2019 20:09, 70, 32, 38 ,2, 2, W, None, None, ,   ,
04/19/2019 20:07, 70, 33, 39 ,2, 2, NW, None, None, ,   ,
04/19/2019 19:59, 70, 31, 38 ,1, 2, NW, None, None, ,   ,
04/19/2019 19:52, 70, 31, 38 ,2, 2, NW, None, None, ,   ,
04/19/2019 19:49, 70, 32, 39 ,2, 2, NW, None, None, ,   ,
04/19/2019 19:39, 70, 32, 39 ,1, 2, W, None, None, ,   ,
04/19/2019 19:37, 70, 31, 39 ,1, 2, W, Yes, , ,   ,
04/19/2019 19:29, 71, 31, 39 ,2, 4, NW, None, None, ,   ,
04/19/2019 19:22, 71, 32, 40 ,2, 4, NW, None, None, ,   ,
04/19/2019 19:19, 71, 32, 40 ,3, 4, NW, None, None, ,   ,
04/19/2019 19:09, 71, 33, 40 ,5, 7, NW, None, None, ,   ,
04/19/2019 19:07, 71, 32, 40 ,6, 9, NW, None, None, ,   ,
04/19/2019 18:59, 74, 28, 39 ,7, 10, NW, None, None, ,   ,
04/19/2019 18:52, 75, 27, 39 ,7, 12, NW, None, None, ,   ,
04/19/2019 18:49, 75, 27, 40 ,7, 14, NW, None, None, ,   ,
04/19/2019 18:39, 76, 27, 39 ,12, 14, NW, None, None, ,   ,
04/19/2019 18:37, 76, 26, 39 ,9, 14, NW, None, None, ,   ,
Change End Date:

Copyright © 1998-2015 Vaisala, Inc.
All Rights Reserved
Send comments about the data to:
SCAN Web ® is a registered trademark of Vaisala, Inc.
SCAN Web Version 6.0